Location: ?ern� Novina
(50.6762°N, 14.8696°E)
Time: 12:51:52
(UTC+00:00)

Meteor 1-23 Rocket - Pass Details

Date: 03 March 2021
Orbit: 838 x 888 km, 81.3° (Epoch: 17 April)

Event Time Altitude Azimuth Distance (km) Brightness Sun altitude
Rises 19:20:46 0° 346° (NNW) 3,407 7.8 -25.0°
Reaches altitude 10° 19:23:11 10° 345° (NNW) 2,471 7.1 -25.3°
Maximum altitude 19:28:47 78° 260° (W) 870 4.2 -26.1°
Enters shadow 19:30:15 51° 186° (S) 1,063 4.5 -26.4°
